TimeAST,TemperatureF,Dew PointF,Humidity,Sea Level PressureIn,VisibilityMPH,Wind Direction,Wind SpeedMPH,Gust SpeedMPH,PrecipitationIn,Events,Conditions,WindDirDegrees,DateUTC
12:00 AM,78.8,71.6,78,29.95,6.2,East,9.2,-,N/A,,Partly Cloudy,100,2013-02-09 04:00:00
1:00 AM,78.8,71.6,78,29.92,-9999.0,East,10.4,-,N/A,,Unknown,90,2013-02-09 05:00:00
2:00 AM,78,71,74,,,East,10.4,,,,Clear,80,2013-02-09 06:00:00
2:00 AM,78.8,71.6,78,29.92,-9999.0,East,10.4,-,N/A,,Unknown,80,2013-02-09 06:00:00
3:00 AM,78.8,71.6,78,29.89,-9999.0,East,8.1,-,N/A,,Unknown,80,2013-02-09 07:00:00
5:00 AM,77,71,75,,,East,9.2,,,,Clear,90,2013-02-09 09:00:00
5:00 AM,77.0,69.8,78,29.89,-9999.0,East,9.2,-,N/A,,Unknown,90,2013-02-09 09:00:00
6:00 AM,77.0,71.6,83,29.92,-9999.0,East,11.5,-,N/A,,Unknown,90,2013-02-09 10:00:00
7:00 AM,77.0,71.6,83,29.95,-9999.0,East,9.2,-,N/A,,Unknown,80,2013-02-09 11:00:00
8:00 AM,80,71,67,29.97,22,East,12.7,,,,Partly Cloudy,100,2013-02-09 12:00:00
8:00 AM,80.6,71.6,74,29.95,6.2,East,12.7,-,N/A,,Scattered Clouds,100,2013-02-09 12:00:00
9:00 AM,82.4,71.6,70,29.95,6.2,East,13.8,-,N/A,,Scattered Clouds,90,2013-02-09 13:00:00
10:00 AM,82.4,71.6,70,29.98,6.2,East,16.1,-,N/A,,Scattered Clouds,100,2013-02-09 14:00:00
11:00 AM,84,72,59,30.00,22,East,13.8,,,,Partly Cloudy,100,2013-02-09 15:00:00
11:00 AM,84.2,71.6,66,29.98,6.2,East,13.8,-,N/A,,Scattered Clouds,100,2013-02-09 15:00:00
12:00 PM,84.2,71.6,66,29.98,6.2,East,16.1,-,N/A,,Scattered Clouds,100,2013-02-09 16:00:00
1:00 PM,84.2,71.6,66,29.95,6.2,ESE,17.3,-,N/A,,Scattered Clouds,110,2013-02-09 17:00:00
2:00 PM,85,68,48,29.94,22,ESE,16.1,,,,Partly Cloudy,110,2013-02-09 18:00:00
2:00 PM,86.0,68.0,55,29.92,6.2,East,16.1,-,N/A,,Scattered Clouds,100,2013-02-09 18:00:00
3:00 PM,86.0,69.8,58,29.89,6.2,ESE,13.8,-,N/A,,Scattered Clouds,110,2013-02-09 19:00:00
4:00 PM,86.0,69.8,58,29.89,-9999.0,East,13.8,-,N/A,,Unknown,100,2013-02-09 20:00:00
5:00 PM,84,70,54,29.92,22,ESE,11.5,,,,Partly Cloudy,110,2013-02-09 21:00:00
5:00 PM,84.2,68.0,58,29.89,6.2,East,12.7,-,N/A,,Scattered Clouds,90,2013-02-09 21:00:00
6:00 PM,82.4,69.8,66,29.89,-9999.0,East,11.5,-,N/A,,Unknown,90,2013-02-09 22:00:00
8:00 PM,79,70,68,,6,ENE,6.9,,,,Clear,70,2013-02-10 00:00:00
8:00 PM,78.8,69.8,74,29.92,-9999.0,ENE,6.9,-,N/A,,Unknown,70,2013-02-10 00:00:00
9:00 PM,78.8,69.8,74,29.95,-9999.0,ENE,5.8,-,N/A,,Unknown,60,2013-02-10 01:00:00
11:00 PM,78.8,69.8,74,29.95,-9999.0,ENE,6.9,-,N/A,,Unknown,70,2013-02-10 03:00:00